| time (UTC) | temp F | wind direction | speed MPH | gust MPH | rain 1hr in | rain 24hr in | rain mn in | humidity % | barometer mb |
| 20260504081524 | 49 | 214 | 0.0 | 1.0 | 0.00 | 0.00 | 0.00 | 92 | 1017.1 |
| 20260504050005 | 54 | 256 | 0.0 | 1.0 | 0.00 | 0.00 | 0.00 | 85 | 1017.4 |
| 20260504044505 | 54 | 275 | 0.0 | 1.0 | 0.00 | 0.00 | 0.00 | 84 | 1017.5 |
| 20260504043005 | 54 | 258 | 0.0 | 2.0 | 0.00 | 0.00 | 0.00 | 84 | 1017.4 |
| 20260504041506 | 54 | 262 | 0.0 | 2.0 | 0.00 | 0.00 | 0.00 | 84 | 1017.4 |
| 20260504040006 | 54 | 265 | 0.0 | 3.0 | 0.00 | 0.00 | 0.00 | 83 | 1017.4 |
| 20260504034526 | 54 | 212 | 0.0 | 2.0 | 0.00 | 0.00 | 0.00 | 84 | 1017.5 |
| 20260504033027 | 54 | 284 | 0.0 | 5.0 | 0.00 | 0.00 | 0.00 | 84 | 1017.4 |
| 20260504031526 | 53 | 294 | 0.0 | 2.0 | 0.00 | 0.00 | 0.00 | 85 | 1017.5 |
| 20260504030005 | 53 | 290 | 0.0 | 2.0 | 0.00 | 0.00 | 0.00 | 85 | 1017.6 |
| 20260504024505 | 52 | 304 | 0.0 | 1.0 | 0.00 | 0.00 | 0.00 | 84 | 1017.7 |
| 20260504023004 | 52 | 306 | 0.0 | 2.0 | 0.00 | 0.00 | 0.00 | 84 | 1017.6 |
| 20260504021505 | 50 | 278 | 0.0 | 1.0 | 0.00 | 0.00 | 0.00 | 87 | 1017.4 |
| 20260504020005 | 49 | 0 | 0.0 | 0.0 | 0.00 | 0.00 | 0.00 | 79 | 1017.3 |
| 20260504014507 | 50 | 0 | 0.0 | 0.0 | 0.00 | 0.01 | 0.00 | 78 | 1017.0 |
| 20260504013005 | 50 | 0 | 0.0 | 0.0 | 0.00 | 0.01 | 0.00 | 78 | 1016.7 |
| 20260504011504 | 51 | 0 | 0.0 | 0.0 | 0.00 | 0.01 | 0.00 | 76 | 1016.5 |
| 20260504010026 | 52 | 0 | 0.0 | 0.0 | 0.00 | 0.01 | 0.00 | 75 | 1016.3 |
| 20260504004505 | 52 | 0 | 0.0 | 0.0 | 0.00 | 0.01 | 0.00 | 72 | 1016.0 |
| 20260504003005 | 53 | 0 | 0.0 | 0.0 | 0.00 | 0.01 | 0.00 | 70 | 1016.0 |
| 20260504001504 | 54 | 0 | 0.0 | 0.0 | 0.00 | 0.01 | 0.00 | 70 | 1015.8 |
| 20260504000005 | 55 | 0 | 0.0 | 0.0 | 0.00 | 0.01 | 0.00 | 66 | 1015.7 |
| 20260503234505 | 56 | 0 | 0.0 | 0.0 | 0.00 | 0.01 | 0.00 | 63 | 1015.6 |
| 20260503233026 | 58 | 0 | 0.0 | 0.0 | 0.00 | 0.01 | 0.00 | 61 | 1015.4 |
| 20260503231505 | 59 | 0 | 0.0 | 0.0 | 0.00 | 0.01 | 0.00 | 56 | 1015.3 |
| 20260503230004 | 60 | 0 | 0.0 | 0.0 | 0.00 | 0.01 | 0.00 | 53 | 1015.2 |
| 20260503224504 | 61 | 129 | 0.0 | 1.0 | 0.00 | 0.01 | 0.00 | 50 | 1015.2 |
| 20260503223004 | 61 | 157 | 0.0 | 6.0 | 0.00 | 0.01 | 0.00 | 47 | 1015.1 |
| 20260503221505 | 62 | 151 | 0.0 | 2.0 | 0.00 | 0.01 | 0.00 | 49 | 1015.2 |
| 20260503220026 | 62 | 116 | 0.0 | 3.0 | 0.00 | 0.01 | 0.00 | 48 | 1015.2 |
| 20260503214505 | 63 | 136 | 1.0 | 5.0 | 0.00 | 0.01 | 0.00 | 45 | 1015.1 |
| 20260503213005 | 64 | 100 | 1.0 | 4.0 | 0.00 | 0.01 | 0.00 | 47 | 1015.0 |
| 20260503211504 | 65 | 138 | 1.0 | 6.0 | 0.00 | 0.01 | 0.00 | 44 | 1014.9 |
| 20260503210005 | 66 | 107 | 0.0 | 2.0 | 0.00 | 0.01 | 0.00 | 43 | 1015.0 |
| 20260503204504 | 66 | 99 | 1.0 | 5.0 | 0.00 | 0.02 | 0.00 | 44 | 1014.9 |
| 20260503203004 | 66 | 133 | 1.0 | 5.0 | 0.00 | 0.02 | 0.00 | 44 | 1015.0 |
| 20260503201505 | 66 | 180 | 1.0 | 6.0 | 0.00 | 0.02 | 0.00 | 44 | 1015.1 |
| 20260503200005 | 67 | 130 | 0.0 | 4.0 | 0.00 | 0.03 | 0.00 | 46 | 1015.3 |
| 20260503194504 | 66 | 117 | 1.0 | 2.0 | 0.00 | 0.03 | 0.00 | 45 | 1015.5 |
| 20260503193004 | 65 | 154 | 1.0 | 5.0 | 0.00 | 0.04 | 0.00 | 45 | 1015.5 |
| 20260503191526 | 65 | 152 | 1.0 | 7.0 | 0.00 | 0.04 | 0.00 | 46 | 1015.9 |
| 20260503190025 | 65 | 149 | 1.0 | 6.0 | 0.00 | 0.04 | 0.00 | 44 | 1016.1 |
| 20260503184525 | 65 | 157 | 1.0 | 5.0 | 0.00 | 0.04 | 0.00 | 45 | 1016.1 |
| 20260503183025 | 65 | 177 | 1.0 | 8.0 | 0.00 | 0.04 | 0.00 | 45 | 1016.3 |
| 20260503181505 | 65 | 135 | 1.0 | 10.0 | 0.00 | 0.04 | 0.00 | 50 | 1016.4 |
| 20260503180005 | 63 | 134 | 2.0 | 8.0 | 0.00 | 0.04 | 0.00 | 47 | 1016.4 |
| 20260503174504 | 64 | 130 | 1.0 | 6.0 | 0.00 | 0.04 | 0.00 | 51 | 1016.4 |
| 20260503173004 | 62 | 133 | 1.0 | 5.0 | 0.00 | 0.05 | 0.00 | 49 | 1016.4 |
| 20260503171525 | 63 | 117 | 1.0 | 8.0 | 0.00 | 0.06 | 0.00 | 48 | 1016.6 |